Weather History for Malatya, Turkey

Change the Weather History Date:

Sunday, January 20, 2013

  Actual Average Record
Temperature  
Mean Temperature 32 °F -  
Max Temperature 39 °F 40 °F 52 °F (2014)
Min Temperature 24 °F 28 °F 6 °F (2008)
Degree Days  
Heating Degree Days 34    
Moisture  
Dew Point 31 °F    
Average Humidity 91    
Maximum Humidity 100    
Minimum Humidity 75    
Precipitation  
Precipitation 0.00 in 0.05 in - ()
Sea Level Pressure  
Sea Level Pressure 30.09 in    
Wind  
Wind Speed 5 mph ()    
Max Wind Speed 9 mph    
Max Gust Speed -    
Visibility 5.4 miles    
Events      
Averages and records for this station are not official NWS values.
T = Trace of Precipitation, MM = Missing Value Source: Averaged Metar Reports

Daily Weather History Graph

Daily Weather History Graph

Search for Another Location

Airport:

Trip Planner

Search our weather history database for the weather conditions in past years. The results will help you decide how hot, cold, wet, or windy it might be!

Date:

Astronomy

Jan. 20, 2013 Rise Set
Actual Time 6:41 AM EET 4:36 PM EET
Civil Twilight 6:12 AM EET 5:05 PM EET
Nautical Twilight 5:40 AM EET 5:37 PM EET
Astronomical Twilight 5:08 AM EET 6:08 PM EET
Moon 11:24 AM EET (1/20) 12:53 AM EET (1/20)
Length of Visible Light 10h 52m
Length of Day
9h 54m
Waxing Gibbous, 63% of the Moon is Illuminated
Jan 20
Waxing Gibbous
Jan 27
Full
Feb 3
Last Quarter
Feb 10
New
Feb 17
First Quarter

Hourly Weather History & Observations

Time (EET) Temp. Windchill Dew Point Humidity Pressure Visibility Wind Dir Wind Speed Gust Speed Precip Events Conditions
12:20 AM 33.8 °F 30.8 °F 30.2 °F 87% 29.98 in 6.2 mi West 3.5 mph - N/A   Overcast
12:50 AM 35.6 °F 29.9 °F 28.4 °F 75% 29.98 in 6.2 mi NW 6.9 mph - N/A   Overcast
1:20 AM 35.6 °F 29.9 °F 32.0 °F 87% 30.01 in 6.2 mi NW 6.9 mph - N/A   Overcast
1:50 AM 35.6 °F 28.6 °F 32.0 °F 87% 30.01 in 6.2 mi NNW 9.2 mph - N/A   Overcast
2:20 AM 33.8 °F 27.7 °F 32.0 °F 93% 30.01 in 6.2 mi North 6.9 mph - N/A   Overcast
2:50 AM 35.6 °F 29.2 °F 33.8 °F 93% 30.01 in 6.2 mi North 8.1 mph - N/A   Overcast
3:20 AM 33.8 °F 29.6 °F 33.8 °F 100% 30.01 in 6.2 mi NNE 4.6 mph - N/A   Overcast
3:50 AM 33.8 °F 30.8 °F 33.8 °F 100% 30.01 in 3.7 mi ESE 3.5 mph - N/A   Overcast
4:20 AM 32.0 °F 26.4 °F 32.0 °F 100% 30.01 in 3.7 mi SSW 5.8 mph - N/A   Overcast
4:50 AM 32.0 °F 24.8 °F 32.0 °F 100% 30.04 in 3.7 mi SW 8.1 mph - N/A   Mostly Cloudy
5:20 AM 33.8 °F 27.0 °F 33.8 °F 100% 30.04 in 3.7 mi SW 8.1 mph - N/A   Mostly Cloudy
5:50 AM 33.8 °F 28.6 °F 33.8 °F 100% 30.04 in 3.7 mi SSW 5.8 mph - N/A   Mostly Cloudy
6:20 AM 33.8 °F 28.6 °F 33.8 °F 100% 30.06 in 3.7 mi WSW 5.8 mph - N/A   Mostly Cloudy
6:50 AM 33.8 °F 29.6 °F 33.8 °F 100% 30.06 in 3.7 mi SSW 4.6 mph - N/A   Mostly Cloudy
7:20 AM 33.8 °F 29.6 °F 33.8 °F 100% 30.06 in 3.7 mi South 4.6 mph - N/A   Mostly Cloudy
7:50 AM 35.6 °F 32.8 °F 33.8 °F 93% 30.06 in 3.7 mi SE 3.5 mph - N/A   Mostly Cloudy
8:20 AM 33.8 °F 29.6 °F 33.8 °F 100% 30.09 in 6.2 mi South 4.6 mph - N/A   Mostly Cloudy
8:50 AM 35.6 °F 31.7 °F 35.6 °F 100% 30.12 in 5.0 mi SW 4.6 mph - N/A   Overcast
9:20 AM 35.6 °F 29.9 °F 33.8 °F 93% 30.12 in 5.0 mi SW 6.9 mph - N/A   Mostly Cloudy
9:50 AM 35.6 °F 28.6 °F 33.8 °F 93% 30.12 in 5.0 mi SW 9.2 mph - N/A   Overcast
10:20 AM 37.4 °F 30.8 °F 33.8 °F 87% 30.12 in 5.0 mi SW 9.2 mph - N/A   Overcast
10:50 AM 37.4 °F 31.4 °F 32.0 °F 81% 30.12 in 5.0 mi SW 8.1 mph - N/A   Overcast
11:20 AM 37.4 °F 32.1 °F 32.0 °F 81% 30.09 in 5.0 mi SSW 6.9 mph - N/A   Overcast
11:50 AM 37.4 °F 31.4 °F 32.0 °F 81% 30.09 in 5.0 mi SSW 8.1 mph - N/A   Overcast
12:20 PM 37.4 °F 32.8 °F 32.0 °F 81% 30.09 in 5.0 mi SW 5.8 mph - N/A   Overcast
12:50 PM 37.4 °F 32.8 °F 32.0 °F 81% 30.09 in 6.2 mi SSW 5.8 mph - N/A   Overcast
1:20 PM 39.2 °F 35.9 °F 32.0 °F 75% 30.09 in 5.0 mi SW 4.6 mph - N/A   Overcast
1:50 PM 39.2 °F 37.0 °F 32.0 °F 75% 30.09 in 6.2 mi SSW 3.5 mph - N/A   Overcast
2:20 PM 39.2 °F 35.9 °F 32.0 °F 75% 30.09 in 6.2 mi SSW 4.6 mph - N/A   Overcast
2:50 PM 39.2 °F - 32.0 °F 75% 30.09 in 6.2 mi South 2.3 mph - N/A   Overcast
3:20 PM 39.2 °F 37.0 °F 32.0 °F 75% 30.09 in 6.2 mi SSW 3.5 mph - N/A   Overcast
3:50 PM 37.4 °F 33.8 °F 32.0 °F 81% 30.09 in 6.2 mi SSW 4.6 mph - N/A   Mostly Cloudy
4:20 PM 37.4 °F 34.9 °F 32.0 °F 81% 30.09 in 6.2 mi South 3.5 mph - N/A   Mostly Cloudy
4:50 PM 35.6 °F - 32.0 °F 87% 30.09 in 5.0 mi South 2.3 mph - N/A   Mostly Cloudy
5:20 PM 32.0 °F - 28.4 °F 87% 30.12 in 5.0 mi SSW 2.3 mph - N/A   Mostly Cloudy
5:50 PM 33.8 °F 27.7 °F 30.2 °F 87% 30.12 in 6.2 mi WSW 6.9 mph - N/A   Mostly Cloudy
6:20 PM 32.0 °F 27.5 °F 30.2 °F 93% 30.12 in 6.2 mi West 4.6 mph - N/A   Mostly Cloudy
6:50 PM 30.2 °F 25.4 °F 30.2 °F 100% 30.15 in 5.0 mi SW 4.6 mph - N/A   Mostly Cloudy
7:20 PM 30.2 °F 24.3 °F 30.2 °F 100% 30.15 in 5.0 mi SSW 5.8 mph - N/A   Mostly Cloudy
7:50 PM 28.4 °F 23.3 °F 28.4 °F 100% 30.15 in 6.2 mi SSW 4.6 mph - N/A   Mostly Cloudy
8:20 PM 28.4 °F 23.3 °F 28.4 °F 100% 30.15 in 6.2 mi SSW 4.6 mph - N/A   Mostly Cloudy
8:50 PM 28.4 °F 24.6 °F 28.4 °F 100% 30.15 in 6.2 mi SSE 3.5 mph - N/A   Mostly Cloudy
9:20 PM 30.2 °F 26.7 °F 30.2 °F 100% 30.15 in 6.2 mi SW 3.5 mph - N/A   Mostly Cloudy
9:50 PM 30.2 °F 25.4 °F 28.4 °F 93% 30.15 in 6.2 mi SW 4.6 mph - N/A   Mostly Cloudy
10:20 PM 26.6 °F 21.2 °F 26.6 °F 100% 30.18 in 6.2 mi SW 4.6 mph - N/A   Mostly Cloudy
10:50 PM 24.8 °F 19.1 °F 24.8 °F 100% 30.18 in 6.2 mi SW 4.6 mph - N/A   Mostly Cloudy
11:20 PM 28.4 °F 22.2 °F 26.6 °F 93% 30.18 in 6.2 mi SSW 5.8 mph - N/A   Mostly Cloudy
11:50 PM 28.4 °F 24.6 °F 28.4 °F 100% 30.18 in 6.2 mi SW 3.5 mph - N/A   Mostly Cloudy